Spokane, WA
on Monday, December 17, 2012

Monday
Previous Day Next Day
Daily Summary
 ActualAverageRecord
Temperature
Mean Temperature °F 27°F  
Max Temperature 39°F 32°F 53°F (1917)
Min Temperature 27°F 22°F -20°F (1964)
Degree Days
Heating Degree Days 32 38  
Month to date heating degree days 529 629  
Since 1 July heating degree days 1914 2296  
Cooling Degree Days 0 0  
Month to date cooling degree days 0 0  
Year to date cooling degree days 535 450  
Moisture
Dew Point 30°F   
Average Humidity 83    
Maximum Humidity 96    
Minimum Humidity 69    
Precipitation
Precipitation 0.04 in 0.07 in 0.74 in (2008)
Month to date precipitation 1.72 1.33  
Year to date precipitation 20.46 15.59  
Snow
Snow T in 0.40 in 12.50 in (2008)
Month to date snowfall 9.4 7.3  
Since 1 July snowfall 15.3 14.8  
Snow Depth 0.00 in   
Wind
Wind Speed 26 mph   
Max Wind Speed 48 mph   
Max Gust Speed 58 mph   
Visibility 10 miles   
Events Rain   

Key: T is trace of precipitation, MM is missing value
Source: NWS Daily Summary
Time(PST)TemperatureDew PointHumidity Pressure Visibility Wind DirectionWind SpeedGust SpeedPrecipitationEvents Conditions
12:14 AM 33.8°F 32.0°F 93% 29.16 in 10.0 miles SSE 20.7 mph 28.8 mph 0.01 in   Overcast
12:53 AM 35.1°F 33.1°F 92% 29.20 in 10.0 miles SSE 17.3 mph 26.5 mph 0.01 in   Overcast
1:53 AM 37.0°F 34.0°F 89% 29.19 in 10.0 miles South 18.4 mph 29.9 mph N/A   Overcast
2:04 AM 35.6°F 33.8°F 93% 29.15 in 10.0 miles SSW 13.8 mph - 0.00 in Rain Light Rain
2:53 AM 37.0°F 36.0°F 96% 29.18 in 10.0 miles South 15.0 mph 21.9 mph 0.03 in Rain Light Rain
3:53 AM 37.9°F 35.1°F 89% 29.17 in 10.0 miles South 20.7 mph 34.5 mph 0.00 in   Overcast
4:53 AM 37.9°F 35.1°F 89% 29.15 in 10.0 miles South 25.3 mph 34.5 mph 0.00 in   Overcast
5:26 AM 37.4°F 35.6°F 93% 29.11 in 10.0 miles SSW 29.9 mph 39.1 mph 0.00 in   Overcast
5:53 AM 37.9°F 33.1°F 83% 29.16 in 10.0 miles SSW 28.8 mph 39.1 mph 0.00 in   Overcast
6:43 AM 37.4°F 32.0°F 81% 29.14 in 10.0 miles SSW 31.1 mph 40.3 mph 0.00 in   Overcast
6:53 AM 37.9°F 32.0°F 79% 29.18 in 10.0 miles SSW 31.1 mph 42.6 mph 0.00 in   Overcast
7:53 AM 37.0°F 32.0°F 82% 29.20 in 10.0 miles SSW 35.7 mph 47.2 mph N/A   Overcast
8:53 AM 36.0°F 32.0°F 86% 29.25 in 10.0 miles SW 42.6 mph 52.9 mph 0.00 in Rain Light Rain
9:53 AM 36.0°F 32.0°F 86% 29.34 in 10.0 miles SW 35.7 mph 47.2 mph 0.00 in   Overcast
10:26 AM 35.6°F 32.0°F 87% 29.31 in 10.0 miles SW 38.0 mph 46.0 mph N/A   Overcast
10:53 AM 36.0°F 32.0°F 86% 29.37 in 10.0 miles SW 35.7 mph 46.0 mph N/A   Overcast
11:34 AM 35.6°F 32.0°F 87% 29.36 in 10.0 miles SW 35.7 mph 42.6 mph N/A   Overcast
11:53 AM 36.0°F 30.9°F 82% 29.40 in 10.0 miles SW 35.7 mph 44.9 mph N/A   Overcast
12:53 PM 37.0°F 30.9°F 79% 29.44 in 10.0 miles SW 31.1 mph 40.3 mph N/A   Mostly Cloudy
1:53 PM 37.9°F 30.0°F 73% 29.48 in 10.0 miles SW 28.8 mph 36.8 mph N/A   Overcast
4:53 PM 35.1°F 26.1°F 70% 29.60 in 10.0 miles SW 24.2 mph 34.5 mph N/A   Mostly Cloudy
5:53 PM 34.0°F 25.0°F 70% 29.63 in 10.0 miles SW 25.3 mph 29.9 mph N/A   Overcast
6:53 PM 32.0°F 25.0°F 75% 29.67 in 10.0 miles SW 19.6 mph 31.1 mph N/A   Mostly Cloudy
7:53 PM 30.9°F 24.1°F 76% 29.70 in 10.0 miles SW 23.0 mph - N/A   Overcast
8:53 PM 28.9°F 24.1°F 82% 29.73 in 10.0 miles SW 23.0 mph - N/A   Mostly Cloudy
9:53 PM 28.0°F 24.1°F 85% 29.76 in 10.0 miles SW 18.4 mph - N/A   Mostly Cloudy
10:53 PM 28.0°F 24.1°F 85% 29.79 in 10.0 miles SW 17.3 mph 23.0 mph N/A   Mostly Cloudy
11:53 PM 27.0°F 23.0°F 85% 29.80 in 10.0 miles SSW 19.6 mph 25.3 mph N/A   Scattered Clouds
Moon Phase
Dec. 17 Dec. 20 Dec. 28 Jan. 04 Jan. 11
Sunrise:07:33 AM (PST) Moon Rise:10:26 AM (PST)12/17
Sunset:03:59 PM (PST) Moon Set:09:46 PM (PST)12/17

Copyright © 2014 The Weather Underground, Inc.